Погода в Неосе Мармарасе

Греция     40°05′40″N   23°47′09″E
темп.,
°C
ветер,
м/с
пор.,
м/с
влажн.,
%
обл.,
%
осадки,
мм/ч
давл.,
гПа
погр.,
м
18 мая, вт
вт1800:00+20ю237689 0.0 100722
03:00+19зсз11745 0.0 100714
06:00+19сз23760 0.0 100729
09:00+20сз44670 0.0 1009143
12:00+23зсз57560 0.0 1009277
15:00+24зсз79480 0.0 1010445
18:00+23с35571 0.0 1011438
21:00+20всв006882 0.0 101212
19 мая, ср
ср1900:00+18вюв578742 0.0 1014243
03:00+18в34785 0.0 1014127
06:00+18всв22736 0.0 101471
09:00+20вюв346511 0.0 1014179
12:00+20юв55695 0.0 1013447
15:00+21юв56690 0.0 1011391
18:00+21юв33670 0.0 1010232
21:00+20вюв337156 0.0 100945
20 мая, чт
чт2000:00+20с2268100 0.0 100914
03:00+19ссз33735 0.0 100829
06:00+19зсз35777 0.0 100797
09:00+20сз34723 0.0 1008186
12:00+22зсз34586 0.0 1008466
15:00+23зюз44495 0.0 1007408
18:00+23зюз34486 0.0 1007412
21:00+20ссз6961100 0.0 1009248
21 мая, пт
пт2100:00+18в5679100 0.1 1010389
03:00+16ссв5779100 1.7 1010407
06:00+15всв3477100 0.9 1010319
09:00+15св2276100 5.6 1011156
12:00+16ссв576693 1.4 1012935
15:00+17в2257100 2.1 1012618
18:00+18сз5753100 0.4 10121244
21:00+16сз1011645 0.5 1013620
22 мая, сб
сб2200:00+15сз78640 0.0 1015498
03:00+16сз910641 0.0 1014534
06:00+16ссз666316 0.0 1014357
09:00+17сз32585 0.0 1016364
12:00+19з22481 0.0 1016515
15:00+21ю22460 0.0 1015515
18:00+21ю43500 0.0 1015593
21:00+18ююв56680 0.0 1016326